sat.trackr.live / text

‹ back to catalog

STARLINK-11224 [DTC]

NORAD 60304 · 2024-133D

PAYLOAD ACTIVE UNKNOWN

§ Identity

Operator
Country
US
Launch date
2024-07-28
Launch site
AFWTR
Launch vehicle
Mass (kg)
RCS (m²)

Purposes: comms

External: N2YO · Heavens-Above · Gunter

§ Orbital elements

Epoch: 2026-05-25T05:18:49.245984Z

Period
91.74 min
Inclination
53.1586°
Eccentricity
0.0001141
Mean motion
15.69672421 rev/d
Perigee alt
359.1 km
Apogee alt
360.6 km
Semi-major
6,738.0 km
B*
3.2271e-5
RAAN
128.9964°
Arg perigee
98.1880°
Mean anomaly
261.9267°
Rev number
10,583

§ Raw data

STARLINK-11224 [DTC]1 60304U 24133D   26145.22140331  .00003317  00000+0  32271-4 0  99922 60304  53.1586 128.9964 0001141  98.1880 261.9267 15.69672421105836

JSON: /api/v1/satellites/60304 · /tle

For live sub-satellite position, see the globe view (requires WebGL).

§ Visibility from observer

Set your observer location to see the next 7 days of passes ≥ 10°. The values pass through the URL so the page stays shareable.

No JS? Fill the form by hand. The geolocation button needs JavaScript.